Clinton, OK

9:27 AM CST on December 14, 2017 (GMT -0600)
Clinton Municipal

Weather History for KCLK - May, 2013

Change the Weather History Date:

Thursday, May 2, 2013

  Actual Average (KCSM) Record (KCSM)
Temperature  
Mean Temperature 43 °F -  
Max Temperature 51 °F 75 °F 95 °F (2002)
Min Temperature 35 °F 51 °F 35 °F (2013)
Degree Days  
Heating Degree Days 22    
Moisture  
Dew Point 31 °F    
Average Humidity 69    
Maximum Humidity 93    
Minimum Humidity 33    
Precipitation  
Precipitation 0.24 in - - ()
Sea Level Pressure  
Sea Level Pressure 30.39 in    
Wind  
Wind Speed 24 mph (North)    
Max Wind Speed 38 mph    
Max Gust Speed 54 mph    
Visibility 9 miles    
Events Rain    
Averages and records for this station are not official NWS values.
T = Trace of Precipitation, MM = Missing Value Source: NWS Daily Summary

Daily Weather History Graph

Daily Weather History Graph

Search for Another Location

Airport or City:

Trip Planner

Search our weather history database for the weather conditions in past years. The results will help you decide how hot, cold, wet, or windy it might be!

Date:

Astronomy

May. 02, 2013 Rise Set
Actual Time 6:42 AM CDT 8:23 PM CDT
Civil Twilight 6:15 AM CDT 8:50 PM CDT
Nautical Twilight 5:42 AM CDT 9:23 PM CDT
Astronomical Twilight 5:07 AM CDT 9:58 PM CDT
Moon 2:15 AM CDT (5/2) 1:29 PM CDT (5/2)
Length of Visible Light 14h 35m
Length of Day
13h 40m
Waning Gibbous, 47% of the Moon is Illuminated
May 2
Waning Gibbous
May 9
New
May 17
First Quarter
May 24
Full
May 31
Last Quarter

Hourly Weather History & Observations

Time (CDT) Temp. Windchill Dew Point Humidity Pressure Visibility Wind Dir Wind Speed Gust Speed Precip Events Conditions
12:15 AM 41.0 °F 31.6 °F 33.8 °F 76% 30.24 in 10.0 mi North 20.7 mph 36.8 mph N/A Rain Light Rain
12:35 AM 39.2 °F 27.6 °F 33.8 °F 81% 30.24 in 10.0 mi North 28.8 mph 33.4 mph N/A Rain Light Rain
12:55 AM 37.4 °F 25.9 °F 33.8 °F 87% 30.25 in 10.0 mi North 25.3 mph 40.3 mph N/A   Overcast
1:15 AM 39.2 °F 28.7 °F 33.8 °F 81% 30.26 in 10.0 mi North 23.0 mph 32.2 mph N/A   Overcast
1:35 AM 39.2 °F 28.0 °F 33.8 °F 81% 30.27 in 10.0 mi North 26.5 mph 35.7 mph N/A   Overcast
1:55 AM 37.4 °F 25.4 °F 33.8 °F 87% 30.28 in 7.0 mi North 27.6 mph 36.8 mph N/A   Overcast
2:35 AM 37.4 °F 27.2 °F 33.8 °F 87% 30.30 in 7.0 mi North 19.6 mph 28.8 mph N/A   Overcast
2:55 AM 37.4 °F 26.9 °F 33.8 °F 87% 30.30 in 7.0 mi North 20.7 mph 27.6 mph N/A Rain Light Rain
3:15 AM 37.4 °F 26.4 °F 33.8 °F 87% 30.30 in 5.0 mi North 23.0 mph 28.8 mph N/A Rain Rain
3:35 AM 37.4 °F 26.4 °F 33.8 °F 87% 30.31 in 7.0 mi NNW 23.0 mph 31.1 mph N/A   Overcast
3:55 AM 37.4 °F 25.6 °F 33.8 °F 87% 30.31 in 4.0 mi North 26.5 mph 34.5 mph N/A Rain Light Rain
4:15 AM 37.4 °F 26.4 °F 33.8 °F 87% 30.31 in 4.0 mi North 23.0 mph 29.9 mph N/A Rain Light Rain
4:35 AM 37.4 °F 26.9 °F 33.8 °F 87% 30.31 in 5.0 mi North 20.7 mph 32.2 mph 0.02 in Rain Light Rain
4:55 AM 37.4 °F 26.6 °F 33.8 °F 87% 30.32 in 7.0 mi North 21.9 mph 31.1 mph 0.03 in Rain Light Rain
5:15 AM 37.4 °F 27.2 °F 33.8 °F 87% 30.35 in 7.0 mi NNW 19.6 mph 31.1 mph 0.01 in Rain Light Rain
5:35 AM 37.4 °F 25.4 °F 33.8 °F 87% 30.32 in 4.0 mi North 27.6 mph 33.4 mph 0.07 in Rain Rain
5:55 AM 37.4 °F 26.9 °F 33.8 °F 87% 30.38 in 7.0 mi NNW 20.7 mph 36.8 mph 0.09 in Rain Heavy Rain
6:15 AM 35.6 °F 23.2 °F 32.0 °F 87% 30.34 in 5.0 mi North 26.5 mph 36.8 mph 0.05 in Rain Light Rain
6:35 AM 37.4 °F 26.1 °F 32.0 °F 81% 30.35 in 10.0 mi North 24.2 mph 40.3 mph 0.06 in   Light Drizzle
6:55 AM 37.4 °F 26.1 °F 32.0 °F 81% 30.36 in 10.0 mi North 24.2 mph 31.1 mph 0.06 in   Overcast
7:15 AM 37.4 °F 24.8 °F 32.0 °F 81% 30.35 in 10.0 mi North 31.1 mph 35.7 mph N/A Rain Light Rain
7:35 AM 37.4 °F 24.6 °F 32.0 °F 81% 30.35 in 10.0 mi North 32.2 mph 42.6 mph N/A   Overcast
7:55 AM 37.4 °F 26.1 °F 32.0 °F 81% 30.38 in 10.0 mi North 24.2 mph 35.7 mph N/A Rain Light Rain
8:15 AM 37.4 °F 25.2 °F 32.0 °F 81% 30.38 in 10.0 mi North 28.8 mph 40.3 mph N/A   Overcast
8:35 AM 37.4 °F 26.6 °F 32.0 °F 81% 30.47 in 10.0 mi North 21.9 mph 31.1 mph N/A   Overcast
8:55 AM 35.6 °F 24.0 °F 32.0 °F 87% 30.41 in 3.0 mi North 23.0 mph 31.1 mph 0.05 in Rain Rain
9:15 AM 35.6 °F 24.0 °F 32.0 °F 87% 30.46 in 7.0 mi NNW 23.0 mph 31.1 mph N/A Rain Light Rain
9:35 AM 35.6 °F 24.0 °F 32.0 °F 87% 30.43 in 7.0 mi North 23.0 mph 33.4 mph N/A Rain Rain
9:55 AM 35.6 °F 23.4 °F 32.0 °F 87% 30.44 in 5.0 mi North 25.3 mph 34.5 mph 0.01 in Rain Light Rain
10:15 AM 35.6 °F 23.4 °F 33.8 °F 93% 30.42 in 7.0 mi North 25.3 mph 34.5 mph N/A   Light Drizzle
10:35 AM 37.4 °F 24.8 °F 33.8 °F 87% 30.44 in 7.0 mi North 31.1 mph 38.0 mph N/A   Mostly Cloudy
10:55 AM 37.4 °F 24.8 °F 32.0 °F 81% 30.45 in 10.0 mi North 31.1 mph 39.1 mph N/A   Mostly Cloudy
11:15 AM 35.6 °F 24.0 °F 32.0 °F 87% 30.46 in 10.0 mi North 23.0 mph 38.0 mph N/A   Scattered Clouds
11:35 AM 37.4 °F 25.4 °F 32.0 °F 81% 30.46 in 10.0 mi North 27.6 mph 36.8 mph N/A   Mostly Cloudy
11:55 AM 37.4 °F 25.4 °F 32.0 °F 81% 30.46 in 10.0 mi North 27.6 mph 44.9 mph N/A   Mostly Cloudy
12:15 PM 39.2 °F 27.8 °F 32.0 °F 75% 30.47 in 10.0 mi North 27.6 mph 40.3 mph N/A   Mostly Cloudy
12:35 PM 41.0 °F 29.3 °F 32.0 °F 70% 30.46 in 10.0 mi North 33.4 mph 46.0 mph N/A   Mostly Cloudy
12:55 PM 41.0 °F 29.1 °F 32.0 °F 70% 30.47 in 10.0 mi North 34.5 mph 46.0 mph N/A   Overcast
1:15 PM 41.0 °F 28.6 °F 32.0 °F 70% 30.46 in 10.0 mi North 38.0 mph 47.2 mph N/A   Overcast
1:35 PM 42.8 °F 32.1 °F 32.0 °F 66% 30.46 in 10.0 mi North 31.1 mph 42.6 mph N/A   Mostly Cloudy
1:55 PM 42.8 °F 31.1 °F 30.2 °F 61% 30.46 in 10.0 mi North 38.0 mph 54.1 mph N/A   Mostly Cloudy
2:15 PM 44.6 °F 34.1 °F 32.0 °F 61% 30.46 in 10.0 mi North 34.5 mph 44.9 mph N/A   Mostly Cloudy
2:35 PM 44.6 °F 33.8 °F 30.2 °F 57% 30.45 in 10.0 mi North 36.8 mph 47.2 mph N/A   Mostly Cloudy
2:55 PM 48.2 °F - 32.0 °F 54% 30.45 in 10.0 mi North 28.8 mph 41.4 mph N/A   Scattered Clouds
3:15 PM 46.4 °F 37.5 °F 30.2 °F 53% 30.45 in 10.0 mi North 27.6 mph 36.8 mph N/A   Mostly Cloudy
3:35 PM 50.0 °F - 30.2 °F 47% 30.43 in 10.0 mi North 26.5 mph 39.1 mph N/A   Mostly Cloudy
3:55 PM 50.0 °F - 28.4 °F 43% 30.43 in 10.0 mi North 26.5 mph 38.0 mph N/A   Scattered Clouds
4:15 PM 50.0 °F - 26.6 °F 40% 30.43 in 10.0 mi North 26.5 mph 38.0 mph N/A   Scattered Clouds
4:35 PM 51.8 °F - 26.6 °F 38% 30.43 in 10.0 mi North 25.3 mph 40.3 mph N/A   Scattered Clouds
4:55 PM 50.0 °F - 26.6 °F 40% 30.42 in 10.0 mi North 27.6 mph 36.8 mph N/A   Scattered Clouds
5:15 PM 51.8 °F - 26.6 °F 38% 30.42 in 10.0 mi North 27.6 mph 38.0 mph N/A   Scattered Clouds
5:35 PM 51.8 °F - 24.8 °F 35% 30.42 in 10.0 mi North 29.9 mph 38.0 mph N/A   Scattered Clouds
5:55 PM 51.8 °F - 24.8 °F 35% 30.41 in 10.0 mi North 20.7 mph 35.7 mph N/A   Scattered Clouds
6:15 PM 51.8 °F - 23.0 °F 33% 30.41 in 10.0 mi North 25.3 mph 34.5 mph N/A   Scattered Clouds
6:35 PM 51.8 °F - 23.0 °F 33% 30.41 in 10.0 mi North 26.5 mph 32.2 mph N/A   Clear
6:55 PM 50.0 °F - 24.8 °F 37% 30.41 in 10.0 mi North 21.9 mph 33.4 mph N/A   Clear
7:15 PM 50.0 °F - 23.0 °F 35% 30.41 in 10.0 mi North 26.5 mph 32.2 mph N/A   Scattered Clouds
7:35 PM 50.0 °F - 23.0 °F 35% 30.41 in 10.0 mi North 19.6 mph 31.1 mph N/A   Scattered Clouds
7:55 PM 50.0 °F - 24.8 °F 37% 30.41 in 10.0 mi North 18.4 mph 27.6 mph N/A   Clear
8:15 PM 48.2 °F - 24.8 °F 40% 30.41 in 10.0 mi North 16.1 mph 24.2 mph N/A   Clear
8:35 PM 46.4 °F 40.4 °F 24.8 °F 43% 30.42 in 10.0 mi North 13.8 mph 18.4 mph N/A   Clear
8:55 PM 44.6 °F 39.2 °F 26.6 °F 49% 30.42 in 10.0 mi North 10.4 mph - N/A   Clear
9:15 PM 42.8 °F 37.5 °F 28.4 °F 57% 30.42 in 10.0 mi North 9.2 mph - N/A   Clear
9:35 PM 41.0 °F 35.8 °F 28.4 °F 61% 30.42 in 10.0 mi North 8.1 mph - N/A   Clear
9:55 PM 39.2 °F 34.2 °F 30.2 °F 70% 30.42 in 10.0 mi North 6.9 mph - N/A   Clear
10:15 PM 37.4 °F 32.8 °F 30.2 °F 75% 30.43 in 10.0 mi NNW 5.8 mph - N/A   Clear
10:35 PM 37.4 °F 32.8 °F 30.2 °F 75% 30.43 in 10.0 mi North 5.8 mph - N/A   Clear
10:55 PM 35.6 °F 29.9 °F 30.2 °F 81% 30.43 in 10.0 mi NNW 6.9 mph - N/A   Clear
11:15 PM 35.6 °F 30.7 °F 30.2 °F 81% 30.43 in 10.0 mi NNW 5.8 mph - N/A   Clear
11:35 PM 35.6 °F 29.9 °F 30.2 °F 81% 30.43 in 10.0 mi NNW 6.9 mph - N/A   Clear
11:55 PM 35.6 °F 29.9 °F 30.2 °F 81% 30.42 in 10.0 mi NNW 6.9 mph - N/A   Clear